“In life, you're either a passenger or a pilot. It’s your choice.”

WELCOME TO YOUR AVIATION DREAM!

What's new Up There Icon

WHAT’S NEW HERE?

4000+ aviation terms, acronyms and definitions!
Make your study a little easier with the aviation glossaries that gather over 4000 terms and acronyms extracted from weather, communications, technical and more general topics…
Partnership Icon

PARTNESHIP ANNOUNCEMENT

I am proud to announce a partnership with nizul Logo, study partner of every pilot who wants to consolidate their ground school knowledge and master their written examination.

Try Me Icon

ALL YOURS FOR 30 MINUTES!

Not sure you’d get along with a freelance instructor? How about giving it a try with a 30 minute flight?
My treat! All free.

Resources Tool Box

STUDENT RESOURCES

As a registered student training with me, you get access to a whole lot of files, tools, documents, aviation glossaries, videos, quizzes, sample tests, etc… 

Control Tower Icon

QUESTIONS? CHECK F.A.Q.

In aviation, the only stupid question is the one you didn’t ask. And there is a big chance yours has already been answered in the FAQ. Check it out!

Brain Icon

ARE YOU WIRED FOR FLYING?

Flying an aircraft is usually not the most difficult part of the “problem” and it takes a certain mindset to deal with the other aspects of a flight. Find out wether…

THEY DID IT!

Meet those who refused to be the passengers of their lives, and learn about their experience.

QUICK FACTS

Aviation is a world of serious numbers.
Here are my own, and they count as much as the other ones.

0
YEARS OF
WISDOM
0
YEARS OF
SKY FUN
0
AMAZING
STUDENTS
0
HOURS OF
PURE EXCITEMENT

Grow some wings,
Come fly with me!

Vancouver Island Weather

METARs and TAFs.
VICTORIA INTL (CYYJ)
METAR:

CYYJ 290200Z 06009KT 20SM SCT063 01/M08 A3000 RMK SC4 SLP160

TAF:

TAF CYYJ 281740Z 2818/2918 31008KT P6SM SCT020 BKN050 TEMPO 2818/2820 FEW020 SCT050 FM282000 04008KT P6SM SCT050 FM290000 03008KT P6SM FEW050 FM291200 05006KT P6SM BKN150 FM291600 15006KT P6SM FEW020 BKN060 OVC100 TEMPO 2916/2918 5SM -SN SCT020 OVC060 RMK NXT FCST BY 290000Z

NANAIMO (CYCD)
METAR:

CYCD 290200Z 27002KT 15SM -SN OVC040 01/M02 A2999 RMK SC8 CVCTV CLD EMBD SLP160

TAF:

TAF CYCD 281740Z 2818/2905 VRB03KT P6SM SCT030 TEMPO 2818/2821 5SM -SHRASN BR BKN020 FM282100 36007KT P6SM SCT030 TEMPO 2821/2905 BKN030 RMK NXT FCST BY 290000Z

LONG BEACH (CYAZ)
METAR:

CYAZ 290100Z 08003KT 15SM FEW030 01/M01 A2994 RMK CU1 CU TR LAST STFD OBS/NXT 291500UTC SLP141

TAF:

TAF CYAZ 281840Z 2819/2901 VRB03KT P6SM FEW030 RMK NXT FCST BY 291700Z

For more in-depth weather information, please, check Collaborative Flight Planning Service

For all Runway conditions in CYYJ, please check

IIDS Web View

Windy’s Forecast & Observations